STARLINK-30328 (57638 NORAD) Tracking and Keplerian Element Data

This shows tracking and keplerian element data for the satellite.

Feedback or suggestion? Click here.




ElementValue
Catalog57638
NameSTARLINK-30328
Epoch Orbit279
Epoch Day238.91667824
Epoch Year2023
RAAN95.9279
Inclination43.0009
Eccentricity0.0001321
Argument of Perigee220.153
Mean Anonmoly203.5745
Mean Motion15.86055083
Decay Rate-0.00900778
L11 57638U 23122G 23238.91667824 -.00900778 00000+0 -39023-2 0 9991
L22 57638 43.0009 95.9279 0001321 220.1530 203.5745 15.86055083 2793



Live tracking and technical data element details for STARLINK-30328 (NORAD 57638). STARLINK-30328 can be tracked NOW for your location showing map with azimuth and elevation plus other details from your city location.







IsCatalogInMostPopularTable: catalog: 57638, numindb: 7
Update: records affected: 1



GetName: 57638 STARLINK-30328

Hit Count: updated at: Tue, 26 Sep 2023 13:13:09 GMT